Location: Autigny
(46.7373°N, 7.0222°E)
Time: 08:15:54
(UTC+00:00)

Daily predictions for brighter satellites

Satellite Brightness Start Highest point End
(mag) Time Altitude Azimuth Time Altitude Azimuth Time Altitude Azimuth
Cosmos 2315 Rocket 4.3 18:34:30 10° SSW 18:40:50 78° W 18:47:16 10° N
GEOS 3 Rocket 3.8 18:37:30 10° SSE 18:42:39 75° SW 18:47:54 10° NW
Aureole 3 4.1 18:38:13 10° S 18:43:03 82° E 18:49:17 10° N
ARGOS Delta rocket 4.2 18:38:12 10° SSE 18:43:31 82° ENE 18:49:01 10° N
Cosmos 407 Rocket 4.3 18:39:47 10° SSE 18:44:07 28° E 18:48:28 10° NE
STARLINK-1233 4.4 18:41:34 10° NW 18:44:22 29° NNE 18:47:12 10° ENE
STARLINK-1234 4.1 18:41:44 10° NW 18:44:31 31° NNE 18:47:20 10° E
STARLINK-1212 4.4 18:42:01 10° NW 18:44:50 29° NNE 18:47:38 10° ENE
Cosmos 1992 Rocket 4.4 18:39:55 10° NNW 18:45:07 70° WSW 18:50:17 10° S
STARLINK-1105 4.4 18:42:28 10° NW 18:45:17 29° NNE 18:48:06 10° ENE
STARLINK-1209 4.1 18:42:54 10° NW 18:45:43 32° NNE 18:48:31 10° E
STARLINK-1206 4.3 18:42:57 10° NW 18:45:45 29° NNE 18:48:32 10° ENE
STARLINK-1247 4.3 18:43:24 10° NW 18:46:12 29° NNE 18:49:00 10° ENE
STARLINK-1227 4.3 18:43:48 10° NW 18:46:38 29° NNE 18:49:28 10° ENE
STARLINK-1218 4.3 18:44:18 10° NW 18:47:06 29° NNE 18:49:54 10° ENE
STARLINK-1226 4.3 18:44:44 10° NW 18:47:33 29° NNE 18:50:22 10° ENE
Cosmos 2228 3.5 18:43:50 10° SSE 18:47:47 37° E 18:51:49 10° NNE
STARLINK-1254 4.3 18:45:10 10° NW 18:48:00 30° NNE 18:50:50 10° ENE
STARLINK-1215 4.3 18:45:40 10° NW 18:48:28 30° NNE 18:51:17 10° ENE
STARLINK-1231 4.3 18:46:06 10° NW 18:48:55 30° NNE 18:51:43 10° ENE
IRIDIUM 106 4.3 18:43:45 10° N 18:48:58 67° E 18:54:08 10° SSE
Cosmos 1758 Rocket 3.5 18:45:22 10° N 18:49:41 66° E 18:53:58 10° SSE
STARLINK-1232 4.3 18:47:01 10° NW 18:49:50 30° NNE 18:52:39 10° ENE
SPOT 3 Rocket 4.2 18:45:23 10° SE 18:50:08 37° ENE 18:54:53 10° N
STARLINK-1217 4.3 18:47:27 10° NW 18:50:16 30° NNE 18:53:06 10° ENE
STARLINK-1208 4.3 18:47:52 10° NW 18:50:43 30° NNE 18:53:33 10° ENE
Cosmos 1603 3.8 18:45:28 10° SSW 18:51:06 89° WNW 18:56:45 10° NNE
STARLINK-1229 4.3 18:48:21 10° NW 18:51:10 30° NNE 18:54:00 10° ENE
Cosmos 1461 3.9 18:47:12 10° NNW 18:51:24 37° NE 18:55:35 11° ESE
STARLINK-1271 4.3 18:48:48 10° NW 18:51:38 30° NNE 18:54:28 10° ENE
STARLINK-1270 4.3 18:49:16 10° NW 18:52:06 30° NNE 18:54:55 10° ENE
Aureole 1 Rocket 4.5 18:45:24 10° S 18:52:26 43° ESE 18:58:07 10° NE
STARLINK-1154 4.3 18:49:42 10° NW 18:52:32 30° NNE 18:55:22 10° ENE
STARLINK-1197 4.3 18:50:37 10° NW 18:53:27 30° NNE 18:56:17 10° ENE
STARLINK-1189 4.2 18:51:04 10° NW 18:53:54 31° NNE 18:56:44 10° ENE
STARLINK-1198 4.2 18:51:31 10° NW 18:54:21 31° NNE 18:57:11 10° E
STARLINK-1188 4.2 18:51:58 10° NW 18:54:48 31° NNE 18:57:38 10° E
STARLINK-1235 4.1 18:52:35 10° NW 18:55:32 34° NNE 18:58:23 10° E
STARLINK-1187 4.1 18:53:02 10° NW 18:55:57 33° NNE 18:58:50 10° E
SJ-6B 3.1 18:52:33 10° SSE 18:56:34 53° ENE 19:00:36 10° N
STARLINK-29 4.4 18:54:15 10° S 18:56:39 20° SE 18:58:47 11° E
STARLINK-1199 4.2 18:53:54 10° NW 18:56:46 31° NNE 18:59:38 10° E
STARLINK-1191 4.2 18:54:22 10° NW 18:57:14 32° NNE 19:00:06 10° E
Cosmos 1953 Rocket 3.9 18:53:14 10° N 18:57:35 46° ENE 19:01:54 10° SSE
STARLINK-1210 4.2 18:54:48 10° NW 18:57:41 32° NNE 19:00:30 10° E
STARLINK-1221 4.2 18:55:15 10° NW 18:58:08 32° NNE 19:00:58 10° E
STARLINK-60 3.4 18:55:22 10° SW 18:58:30 43° SE 19:01:38 10° ENE
STARLINK-1219 4.2 18:55:42 10° NW 18:58:35 32° NNE 19:01:23 11° E
Cosmos 1606 Rocket 3.7 18:54:28 10° S 18:58:45 52° E 19:03:07 10° NNE
ATLAS 5 CENTAUR R/B 2.3 18:55:24 10° S 18:58:56 28° ESE 19:02:48 10° ENE
STARLINK-1222 4.2 18:56:09 10° NW 18:59:02 32° NNE 19:01:49 11° E
Cosmos 2074 Rocket 4.0 18:52:50 10° N 18:59:10 77° E 19:05:27 10° SSE
STARLINK-1211 4.2 18:56:37 10° NW 18:59:30 32° NNE 19:02:15 11° E
STARLINK-1214 4.2 18:57:03 10° NW 18:59:57 32° NNE 19:02:41 11° E
STARLINK-1245 4.2 18:57:33 10° NW 19:00:25 32° NNE 19:03:07 11° E
STARLINK-1238 4.2 18:57:57 10° NW 19:00:51 33° NNE 19:03:34 11° E
ADEOS Rocket 4.2 18:55:29 10° N 19:01:36 48° WNW 19:07:09 10° SW
STARLINK-1205 4.1 18:58:54 10° NW 19:01:47 32° NNE 19:04:25 12° E
STARLINK-1204 4.1 18:59:21 10° NW 19:02:13 33° NNE 19:04:50 12° E
Meteor 1-16 Rocket 4.1 18:57:53 10° S 19:03:15 71° E 19:08:49 10° NNE
Cosmos 1818 3.6 18:58:25 10° SSW 19:03:51 84° SE 19:09:20 10° NE
ISS -0.7 19:08:49 10° SW 19:09:16 10° SW 19:09:43 10° SW
Abrixas rocket 2.2 19:06:22 10° WNW 19:09:19 64° N 19:11:30 16° E
Cosmos 1943 Rocket 3.9 19:06:46 10° NW 19:11:38 32° WSW 19:16:30 10° SSW
NOSS 3-4 (A) 3.9 19:06:34 10° NW 19:13:33 78° NE 19:20:33 13° SE
NOSS 3-4 (C) 3.9 19:06:41 10° NW 19:13:40 78° NE 19:20:38 13° SE
Cosmos 1610 Rocket 4.5 19:09:35 10° N 19:15:45 68° ENE 19:21:51 10° SSE
FALCON 9 DEB 4.0 19:15:26 10° SSW 19:18:30 29° SE 19:20:15 19° E
Cosmos 1300 4.0 19:17:23 18° ESE 19:18:38 22° E 19:21:37 10° NE
SL-4 R/B 1.5 19:15:49 10° WSW 19:19:14 84° NNW 19:22:39 10° ENE
Cosmos 2369 Rocket 3.7 19:16:10 10° NW 19:21:18 36° WSW 19:26:22 10° S
MOS 1 Rocket 4.0 19:17:55 10° NNE 19:23:04 43° E 19:28:13 10° SSE
Cosmos 1340 Rocket 3.1 19:19:14 10° S 19:23:07 47° E 19:27:00 10° NNE
STARLINK-1201 3.9 19:20:26 10° NW 19:23:33 40° NNE 19:25:27 20° E
CZ-2C R/B 3.7 19:20:49 10° NNE 19:25:30 61° ESE 19:30:04 10° S
Cosmos 1703 3.4 19:21:54 10° NNW 19:25:52 80° W 19:29:50 10° S
H-2A R/B 2.6 19:20:50 10° S 19:25:57 58° W 19:30:59 10° NNW
STARLINK-67 2.3 19:23:42 10° WNW 19:26:15 72° NNE 19:27:10 35° ESE
Cosmos 1328 3.9 19:22:29 10° N 19:26:31 82° W 19:30:31 10° S
CZ-2C R/B 3.4 19:23:55 10° S 19:28:43 59° W 19:33:26 10° NNW
SL-08 RB Rocket 4.0 19:32:11 10° S 19:36:43 71° WSW 19:41:20 10° NNW
Cosmos 1908 3.4 19:32:56 10° SSW 19:36:48 75° W 19:40:42 10° N
STARLINK-52 3.4 19:34:02 10° SSW 19:37:02 38° SE 19:37:28 36° ESE
Resurs 1-3 3.5 19:37:16 16° SSE 19:40:45 80° ENE 19:45:09 10° N
USA 234 3.7 19:36:41 10° ENE 19:42:34 35° SE 19:48:25 10° SSW
Iridium 4 Rocket 4.3 19:41:32 10° NNE 19:44:51 22° ENE 19:44:57 22° E
ATLAS 2AS CENTAUR R/B 3.0 19:38:19 10° NW 19:45:52 70° WSW 19:51:22 17° SSE
STARLINK-1228 2.7 19:43:37 10° WNW 19:46:34 74° NNE 19:47:06 54° E
STARLINK-1236 4.5 19:42:40 10° WNW 19:46:39 43° NNE 19:48:47 23° ENE
Cosmos 1943 4.4 19:41:48 10° SW 19:47:13 45° NW 19:52:41 10° NNE
CZ-4C R/B 4.3 19:45:35 10° NNW 19:50:59 25° NNE 19:56:49 11° ENE
Cosmos 1140 Rocket 3.4 19:46:30 10° SSW 19:51:41 79° ESE 19:56:52 10° NNE
Cosmos 2341 Rocket 4.0 19:48:51 10° N 19:55:16 73° E 19:59:56 20° SSE
STARLINK-1269 4.3 19:52:38 10° WNW 19:56:39 46° NNE 19:58:20 29° ENE
Cosmos 1190 Rocket 4.1 19:52:49 10° SSW 19:58:08 81° WNW 20:03:27 10° NNE
Cosmos 2058 Rocket 3.3 19:54:12 10° SSW 19:58:42 73° W 20:03:14 10° N
Spot 2 Rocket 3.8 19:56:54 32° ESE 19:58:50 47° ENE 20:03:43 10° N
DMSP B5D2-2 4.0 19:55:34 10° NNE 20:00:49 87° WNW 20:06:04 10° SSW
CZ-2C R/B 2.4 19:56:17 10° NNE 20:01:29 82° ESE 20:06:42 10° SSW
STARLINK-1200 4.3 19:57:36 10° WNW 20:01:39 48° NNE 20:03:07 32° ENE
Cosmos 1697 Rocket 4.3 19:57:40 10° N 20:01:59 22° NE 20:04:03 18° ENE
COSMOS 2455 2.8 19:55:57 10° NNW 20:02:01 89° NE 20:05:11 30° SSE
STARLINK-1192 4.2 20:02:36 10° WNW 20:06:39 50° NNE 20:07:55 36° ENE
IGS 5A 4.2 20:06:53 35° ENE 20:07:05 35° ENE 20:10:53 10° N
Iridium 2 3.8 20:07:49 51° E 20:07:49 51° E 20:11:29 10° NNE
Cosmos 2218 Rocket 4.1 20:03:27 10° N 20:09:36 59° ENE 20:12:18 34° SE
Resurs 01 Rocket 1.7 20:08:30 28° S 20:10:44 73° WSW 20:15:10 10° NNW
STARLINK-1244 4.1 20:07:34 10° WNW 20:11:38 52° NNE 20:12:41 40° ENE
ERBS 3.3 20:09:02 10° NW 20:12:12 36° NNE 20:12:22 36° NE
BREEZE-M DEB (TANK) 2.3 20:11:54 10° W 20:15:11 46° NNW 20:15:11 46° NNW
ATLAS CENTAUR R/B 3.4 20:13:44 10° N 20:15:57 14° NNE 20:16:45 14° NE
STARLINK-1138 4.0 20:12:33 10° WNW 20:16:38 55° NNE 20:17:28 45° ENE
Cosmos 468 Rocket 4.3 20:11:56 10° NNW 20:16:58 49° ENE 20:18:01 42° E
Cosmos 921 Rocket 3.7 20:16:02 10° NNW 20:20:05 48° WSW 20:21:45 30° SSW
STARLINK-1234 3.6 20:17:21 10° WNW 20:19:47 48° W 20:19:47 48° W
STARLINK-1233 3.4 20:17:18 10° WNW 20:19:56 59° WNW 20:19:56 59° WNW
STARLINK-1212 3.4 20:17:46 10° WNW 20:20:22 57° WNW 20:20:22 57° WNW
STARLINK-1105 3.4 20:18:13 10° WNW 20:20:48 57° WNW 20:20:48 57° WNW
STARLINK-1209 3.8 20:18:30 10° WNW 20:20:51 44° W 20:20:51 44° W
STARLINK-1143 3.9 20:17:31 10° WNW 20:21:38 58° NNE 20:22:14 51° ENE
STARLINK-1206 3.5 20:18:41 10° WNW 20:21:13 54° WNW 20:21:13 54° WNW
STARLINK-1247 3.5 20:19:08 10° WNW 20:21:39 53° WNW 20:21:39 53° WNW
STARLINK-1227 3.5 20:19:33 10° WNW 20:22:06 54° WNW 20:22:06 54° WNW
STARLINK-1218 3.6 20:20:02 10° WNW 20:22:31 52° WNW 20:22:31 52° WNW
STARLINK-1226 3.6 20:20:29 10° WNW 20:22:58 51° WNW 20:22:58 51° WNW
USA 245 4.3 20:21:27 40° SSE 20:23:39 74° ENE 20:30:01 10° N
STARLINK-1254 3.6 20:20:54 10° WNW 20:23:24 52° WNW 20:23:24 52° WNW
STARLINK-1215 3.7 20:21:24 10° WNW 20:23:49 49° WNW 20:23:49 49° WNW
STARLINK-1231 3.7 20:21:51 10° WNW 20:24:15 49° WNW 20:24:15 49° WNW
Cosmos 2181 Rocket 3.9 20:20:34 19° S 20:25:14 82° E 20:31:27 10° N
STARLINK-1232 3.8 20:22:46 10° WNW 20:25:08 47° WNW 20:25:08 47° WNW
SL-8 Rocket 4.0 20:19:40 10° N 20:26:02 89° E 20:29:12 32° S
STARLINK-1217 3.8 20:23:12 10° WNW 20:25:33 47° WNW 20:25:33 47° WNW
STARLINK-1241 3.8 20:22:32 10° WNW 20:26:39 61° NNE 20:27:04 57° NE
STARLINK-1208 3.8 20:23:36 10° WNW 20:26:00 47° WNW 20:26:00 47° WNW
BREEZE-M DEB (TANK) 4.1 20:22:48 10° WNW 20:26:31 35° SW 20:26:31 35° SW
Cosmos 676 Rocket 4.1 20:21:37 10° SSW 20:26:54 76° WNW 20:32:11 10° NNE
STARLINK-1229 3.9 20:24:06 10° WNW 20:26:25 45° WNW 20:26:25 45° WNW
STARLINK-1271 3.9 20:24:33 10° WNW 20:26:52 45° WNW 20:26:52 45° WNW
ERS-1 Rocket 3.4 20:27:20 43° E 20:27:48 44° ENE 20:32:33 10° N
Cosmos 1455 4.4 20:30:12 15° NE 20:30:12 15° NE 20:31:06 10° NNE
STARLINK-1270 3.9 20:25:01 10° WNW 20:27:17 44° WNW 20:27:17 44° WNW
STARLINK-1154 4.0 20:25:27 10° WNW 20:27:43 43° WNW 20:27:43 43° WNW
Cosmos 864 Rocket 4.4 20:22:20 10° N 20:28:35 73° E 20:30:45 42° SSE
STARLINK-1197 4.0 20:26:22 10° WNW 20:28:35 42° WNW 20:28:35 42° WNW
Cosmos 1812 Rocket 3.4 20:29:45 71° ESE 20:29:48 71° E 20:34:08 10° NNE
Cosmos 1656 4.1 20:24:19 10° NNW 20:29:51 48° ENE 20:30:57 42° E
STARLINK-1189 4.1 20:26:49 10° WNW 20:29:01 41° WNW 20:29:01 41° WNW
STARLINK-1198 4.1 20:27:15 10° WNW 20:29:27 41° WNW 20:29:27 41° WNW
Cosmos 1461 4.3 20:26:22 10° NW 20:30:30 35° WSW 20:32:00 28° SSW
STARLINK-1188 4.1 20:27:43 10° WNW 20:29:53 40° WNW 20:29:53 40° WNW
Cosmos 1980 Rocket 3.8 20:27:03 10° N 20:31:11 20° NE 20:32:34 19° ENE
STARLINK-1235 4.3 20:28:22 10° WNW 20:30:32 36° W 20:30:32 36° W
STARLINK-1239 3.7 20:27:28 10° WNW 20:31:36 64° NNE 20:31:48 63° NE
STARLINK-1187 4.2 20:28:48 10° WNW 20:30:59 38° W 20:30:59 38° W
STARLINK-29 4.4 20:29:21 10° WSW 20:31:20 34° W 20:31:20 34° W
Cosmos 1892 3.2 20:28:47 10° N 20:32:00 51° NE 20:32:00 51° NE
STARLINK-1199 4.2 20:29:39 10° WNW 20:31:48 39° WNW 20:31:48 39° WNW
STARLINK-1191 4.2 20:30:07 10° WNW 20:32:15 38° WNW 20:32:15 38° WNW
STARLINK-1210 4.3 20:30:33 10° WNW 20:32:40 38° W 20:32:40 38° W
SPOT 5 3.5 20:34:14 36° NE 20:34:14 36° NE 20:37:44 10° N
STARLINK-1221 4.3 20:31:01 10° WNW 20:33:07 37° W 20:33:07 37° W
STARLINK-1219 4.3 20:31:27 10° WNW 20:33:32 37° W 20:33:32 37° W
STARLINK-60 4.2 20:31:46 10° W 20:34:54 40° NNW 20:34:55 40° NNW
STARLINK-1222 4.3 20:31:55 10° WNW 20:33:58 36° W 20:33:58 36° W
STARLINK-1211 4.4 20:32:22 10° WNW 20:34:24 35° W 20:34:24 35° W
STARLINK-1214 4.4 20:32:49 10° WNW 20:34:50 35° W 20:34:50 35° W
STARLINK-1245 4.5 20:33:18 10° WNW 20:35:16 33° W 20:35:16 33° W
STARLINK-1240 3.7 20:32:27 10° WNW 20:36:36 68° NNE 20:36:36 68° NNE
STARLINK-1238 4.5 20:33:43 10° WNW 20:35:43 34° W 20:35:43 34° W
Cosmos 220 Rocket 3.9 20:33:42 10° NNW 20:38:03 83° WSW 20:38:14 79° SSW
Cosmos 2366 rocket 3.9 20:32:43 10° N 20:38:55 89° E 20:41:05 43° S
STARLINK-1216 3.7 20:37:27 10° WNW 20:41:24 70° N 20:41:24 70° N
Terra 2.7 20:42:27 35° NE 20:42:27 35° NE 20:46:23 10° N
Cosmos 1825 4.0 20:39:15 10° N 20:41:04 22° NNE 20:41:04 22° NNE
ATLAS 5 CENTAUR R/B 2.8 20:39:18 10° WSW 20:43:20 41° NW 20:47:54 10° NNE
Abrixas rocket 4.5 20:42:02 10° W 20:43:05 19° W 20:43:05 19° W
Cosmos 1959 Rocket 4.5 20:39:02 10° N 20:45:22 80° W 20:47:43 41° S
STARLINK-1237 3.8 20:42:24 10° WNW 20:46:09 68° NNW 20:46:09 68° NNW
Nadezhda 3 Rocket 4.4 20:50:21 44° E 20:50:21 44° E 20:56:09 10° NNE
Cosmos 2151 3.9 20:46:53 10° N 20:49:51 39° NNE 20:49:51 39° NNE
Cosmos 2058 3.2 20:46:54 10° NNW 20:50:47 65° WNW 20:50:47 65° WNW
STARLINK-1202 4.0 20:47:24 10° WNW 20:50:57 63° NW 20:50:57 63° NW
Cosmos 192 4.3 20:46:47 10° NNW 20:51:44 73° WSW 20:52:09 68° SSW
SPOT 1/Viking Rocket 3.4 20:52:37 72° SSE 20:53:12 89° WSW 20:58:28 10° NNW
RESURS DK-1 3.4 20:50:09 10° NNW 20:53:17 39° NNE 20:53:17 39° NNE
Cosmos 1741 Rocket 3.9 20:54:59 73° E 20:54:59 73° E 21:00:07 10° NNE
Cosmos 1076 Rocket 4.0 20:54:52 10° NNW 20:59:03 53° W 20:59:03 53° W
SL-4 R/B 3.4 20:55:52 10° WNW 20:58:16 31° NW 20:58:16 31° NW
Cosmos 2082 Rocket 4.3 21:03:59 13° NE 21:03:59 13° NE 21:04:49 10° NE
Cosmos 2208 Rocket 4.3 20:55:55 10° NNW 21:00:47 54° NE 21:00:47 54° NE
STARLINK-1246 4.4 20:57:22 10° WNW 21:00:32 51° WNW 21:00:32 51° WNW
STARLINK-1203 4.4 20:58:14 10° WNW 21:01:25 50° WNW 21:01:25 50° WNW
Cosmos 1763 Rocket 3.5 21:05:25 10° NNW 21:10:29 74° W 21:10:29 74° W
Cosmos 1833 Rocket 4.0 21:13:44 27° NE 21:13:44 27° NE 21:16:28 10° NE
Cosmos 489 Rocket 4.3 21:08:00 10° NNW 21:14:15 86° ENE 21:14:41 78° SE
Cosmos 2239 Rocket 4.5 21:09:57 10° N 21:16:09 64° ENE 21:16:11 64° E
BREEZE M DEB (TANK) 3.6 21:13:03 10° WSW 21:17:10 88° NNW 21:31:40 10° ENE
Cosmos-2242 4.3 21:21:21 37° N 21:21:21 37° N 21:24:04 10° N
Cosmos 1814 Rocket 4.3 21:14:40 10° NNW 21:19:27 63° NNE 21:19:27 63° NNE
Cosmos 540 Rocket 3.8 21:14:54 10° NNW 21:19:20 59° NNE 21:19:20 59° NNE
Cosmos 1821 Rocket 3.9 21:13:53 10° N 21:20:19 78° E 21:20:35 77° ESE
COSMOS 2406 3.2 21:20:59 74° NE 21:20:59 74° NE 21:26:11 10° NNE
Meteor 2-10 Rocket 3.7 21:23:20 69° N 21:23:20 69° N 21:28:06 10° N
Iridium 4 Rocket 4.5 21:21:11 10° NNW 21:24:45 32° W 21:24:45 32° W
Cosmos 1934 Rocket 4.3 21:18:56 10° N 21:24:38 52° ENE 21:24:38 52° ENE
USA 234 3.2 21:19:24 10° NE 21:25:58 81° NNW 21:32:31 10° WSW
USA 32 4.4 21:26:19 10° NNW 21:31:15 59° WNW 21:31:15 59° WNW
Cosmos 2369 3.9 21:35:11 10° NNW 21:40:06 68° NNW 21:40:06 68° NNW
CZ-4C R/B 3.1 21:33:55 10° NW 21:40:54 62° NE 21:42:00 56° E
ASTEX 1 4.3 21:44:36 44° N 21:44:36 44° N 21:48:00 10° N
Cosmos 1697 Rocket 3.0 21:40:57 10° NNW 21:45:47 64° NW 21:45:47 64° NW
Cosmos 841 Rocket 4.2 21:42:42 10° NNW 21:46:53 52° NW 21:46:53 52° NW
Mayak 1.1 21:46:36 10° NNE 21:47:46 18° NNE 21:47:46 18° NNE
ATLAS CENTAUR R/B 3.8 21:51:41 10° NW 21:52:56 19° NNW 21:52:56 19° NNW
SL-16 R/B 3.6 21:59:47 10° N 22:04:14 29° NE 22:04:14 29° NE
Cosmos 2360 Rocket 4.2 22:04:09 10° N 22:07:49 17° NE 22:08:30 17° NE
Meteor 2-3 Rocket 4.4 22:06:30 10° NNW 22:11:01 53° NW 22:11:01 53° NW
Cosmos 2322 Rocket 3.7 22:08:16 10° N 22:12:34 28° NE 22:12:34 28° NE
Cosmos 1980 Rocket 2.9 22:10:16 10° NNW 22:14:19 49° NNW 22:14:19 49° NNW
Terra 3.7 22:21:20 24° WNW 22:21:20 24° WNW 22:24:00 10° NW
Cosmos 2082 Rocket 3.3 22:45:47 40° N 22:45:47 40° N 22:49:39 10° NNE
Cosmos 1833 Rocket 4.1 22:55:21 33° NW 22:55:21 33° NW 23:00:16 10° NNE
Cosmos 2344 4.3 22:47:17 10° NW 22:56:59 76° SW 22:58:33 68° S
Cosmos 2219 Rocket 4.3 23:02:36 10° N 23:06:19 18° NE 23:07:20 17° NE
USA 234 4.3 23:02:30 10° NE 23:08:33 42° NNW 23:14:35 10° W
Mayak 1.8 23:23:57 10° NW 23:24:21 11° NW 23:24:21 11° NW
CZ-4C R/B 4.0 23:22:40 10° NW 23:27:10 33° W 23:27:10 33° W
SL-16 R/B 3.9 23:43:38 10° NW 23:46:05 26° NW 23:46:05 26° NW
Cosmos 2360 Rocket 3.6 23:47:08 10° NNW 23:50:15 34° NNW 23:50:15 34° NNW
